Home > Weather > Schweinfurt > Past weeks

Flag for Germany Weather for the Past 2 Weeks in Schweinfurt, Bavaria, Germany

Now
42 °F

Scattered clouds.


Feels Like: 36 °F
Forecast: 36 / 40 °F
Wind: 9 mph from Southwest

Location: Illesheim

Current Time: Feb 9, 2016 at 9:16:54 AM

Latest Report: Feb 9, 2016 at 7:58 AM


Visibility: N/A

Pressure: 29.64 "Hg

Humidity: 85%

Dew point: 38 °F

Location of SchweinfurtLocation

Historic Weather in Schweinfurt — Graph

°F

Schweinfurt Temperature Yesterday

Maximum temperature yesterday: 54 °F (at 1:58 PM)
Minimum temperature yesterday: 39 °F (at 4:58 AM)
Average temperature yesterday: 44 °F

High & Low Weather Summary for the Past Weeks

 TemperatureHumidityPressure
High57 °F (Jan 27, 1:58 PM)100% (Jan 25, 9:03 AM)30.45 "Hg (Jan 25, 9:03 AM)
Low32 °F (Jan 26, 12:58 AM)53% (Jan 27, 3:58 PM)29.50 "Hg (Feb 8, 1:58 PM)
Average44 °F81%30.10 "Hg
* Reported Jan 25 7:58 AM — Feb 9 7:58 AM, Schweinfurt, Weather by CustomWeather, © 2016

Note: Actual official high and low records may vary slightly from our data, if they occured in-between our weather recording intervals... More about our weather records

Advertising

Schweinfurt Weather History for the Previous 24 Hours

 ConditionsComfort  
Time TempWeatherWind HumidityBarometerVisibility
7:58 AM
Tue, Feb 9
42 °FScattered clouds.9 mph85%29.64 "HgN/A
6:58 AM41 °FPassing clouds.10 mph85%29.67 "HgN/A
5:58 AM43 °FLight rain. Passing clouds.17 mph81%29.67 "HgN/A
4:58 AM43 °FLight rain. Passing clouds.14 mph79%29.68 "HgN/A
3:58 AM42 °FMostly cloudy.14 mph81%29.70 "HgN/A
2:58 AM42 °FPartly cloudy.21 mph79%29.70 "HgN/A
1:58 AM44 °FMostly cloudy.18 mph73%29.69 "HgN/A
12:58 AM45 °FPassing clouds.20 mph71%29.68 "HgN/A
11:58 PM
Mon, Feb 8
43 °FMostly cloudy.21 mph79%29.67 "HgN/A
10:58 PM43 °FPassing clouds.17 mph76%29.67 "HgN/A
9:58 PM42 °FPassing clouds.22 mph77%29.67 "HgN/A
9:03 PM43 °FThunderstorms. Partly cloudy.22 mph81%29.65 "HgN/A
8:58 PM43 °FPartly cloudy.14 mph80%29.65 "HgN/A
7:58 PM42 °FPassing clouds.16 mph84%29.65 "HgN/A
6:58 PM43 °FLight rain. Mostly cloudy.21 mph87%29.63 "HgN/A
5:58 PM45 °FPassing clouds.30 mph77%29.58 "HgN/A
4:58 PM45 °FLight rain. Cloudy.13 mph93%29.57 "HgN/A
4:01 PM46 °FBroken clouds.22 mph82%29.52 "HgN/A
3:58 PM46 °FLight rain. Partly sunny.21 mph89%29.55 "HgN/A
2:58 PM49 °FLight rain. Overcast.23 mph78%29.54 "Hg5 mi
1:58 PM54 °FMostly cloudy.18 mph58%29.50 "HgN/A
12:58 PM53 °FPartly sunny.18 mph59%29.53 "HgN/A
11:58 AM52 °FPartly sunny.16 mph62%29.57 "HgN/A
10:58 AM49 °FScattered clouds.17 mph62%29.61 "HgN/A
9:58 AM47 °FPassing clouds.24 mph62%29.63 "HgN/A
Weather by CustomWeather, © 2016

See weather overviewHow to use our weather pages